FW2255 Weather Reports


time (UTC)temp
C
wind
direction
speed
KPH
gust
KPH
rain 1hr
cm
rain 24hr
cm
rain mn
cm
humidity
%
barometer
mb
20260504175055 22 148 0.0 9.7 0.00 0.00 0.00 26 1012.5
20260504174555 22 148 3.2 9.7 0.00 0.00 0.00 26 1012.6
20260504174055 22 158 4.8 9.7 0.00 0.00 0.00 28 1012.7
20260504173555 22 158 3.2 8.0 0.00 0.00 0.00 28 1012.6
20260504173056 22 160 4.8 8.0 0.00 0.00 0.00 28 1012.8
20260504172554 22 147 3.2 8.0 0.00 0.00 0.00 28 1012.9
20260504172055 22 144 4.8 8.0 0.00 0.00 0.00 27 1012.9
20260504171555 21 147 3.2 9.7 0.00 0.00 0.00 29 1013.0
20260504171056 21 140 3.2 9.7 0.00 0.00 0.00 26 1013.0
20260504170555 21 156 3.2 9.7 0.00 0.00 0.00 29 1013.2
20260504151055 18 159 3.2 6.4 0.00 0.00 0.00 36 1014.4
20260504150557 18 159 1.6 6.4 0.00 0.00 0.00 38 1014.5
20260504141054 15 0 1.6 4.8 0.00 0.00 0.00 44 1014.7
20260504140555 15 0 0.0 4.8 0.00 0.00 0.00 47 1014.7
20260504130559 11 0 0.0 0.0 0.00 0.00 0.00 48 1015.4
20260504110554 8 0 0.0 0.0 0.00 0.00 0.00 57 1015.7
20260504100554 9 0 0.0 0.0 0.00 0.00 0.00 52 1015.5
20260504081555 10 0 0.0 0.0 0.00 0.00 0.00 48 1016.0
20260504081054 10 0 0.0 0.0 0.00 0.00 0.00 49 1015.9
20260504080554 10 0 0.0 0.0 0.00 0.00 0.00 49 1016.0
20260504050557 8 0 0.0 0.0 0.00 0.00 0.00 57 1016.1
20260504045556 8 0 0.0 0.0 0.00 0.00 0.00 57 1016.1
20260504045056 8 0 0.0 0.0 0.00 0.00 0.00 58 1016.2
20260504044603 8 0 0.0 0.0 0.00 0.00 0.00 57 1016.2
20260504044056 8 0 0.0 0.0 0.00 0.00 0.00 56 1016.2
20260504043556 8 0 0.0 0.0 0.00 0.00 0.00 56 1016.1
20260504043057 8 0 0.0 0.0 0.00 0.00 0.00 56 1016.1
20260504042556 8 0 0.0 0.0 0.00 0.00 0.00 56 1016.0
20260504042055 7 0 0.0 0.0 0.00 0.00 0.00 56 1015.9
20260504041556 7 0 0.0 0.0 0.00 0.00 0.00 56 1015.9
20260504041055 7 0 0.0 0.0 0.00 0.00 0.00 56 1015.9
20260504040600 7 0 0.0 0.0 0.00 0.00 0.00 55 1015.9
20260504040058 7 0 0.0 0.0 0.00 0.00 0.00 55 1015.9
20260504035556 7 0 0.0 0.0 0.00 0.00 0.00 54 1016.1
20260504035056 8 0 0.0 0.0 0.00 0.00 0.00 54 1016.2
20260504034611 8 0 0.0 0.0 0.00 0.00 0.00 53 1016.2
20260504034056 8 0 0.0 0.0 0.00 0.00 0.00 53 1016.1
20260504033556 8 0 0.0 0.0 0.00 0.00 0.00 52 1016.1
20260504033100 8 0 0.0 0.0 0.00 0.00 0.00 52 1016.0
20260504032556 8 0 0.0 0.0 0.00 0.00 0.00 51 1016.0
20260504032056 8 0 0.0 0.0 0.00 0.00 0.00 51 1016.0
20260504031603 8 0 0.0 0.0 0.00 0.00 0.00 50 1015.9
20260504031056 8 0 0.0 0.0 0.00 0.00 0.00 49 1016.0
20260504030556 8 0 0.0 0.0 0.00 0.00 0.00 49 1016.1
20260504025556 8 0 0.0 0.0 0.00 0.00 0.00 47 1015.9
20260504025056 8 0 0.0 0.0 0.00 0.00 0.00 47 1015.9
20260504024608 8 0 0.0 0.0 0.00 0.00 0.00 46 1015.9
20260504024055 8 0 0.0 0.0 0.00 0.00 0.00 45 1015.8
20260504023556 9 0 0.0 0.0 0.00 0.00 0.00 45 1015.9
20260504023100 9 0 0.0 0.0 0.00 0.00 0.00 44 1015.9
20260504022556 9 0 0.0 0.0 0.00 0.00 0.00 44 1015.9
20260504022056 9 0 0.0 0.0 0.00 0.00 0.00 43 1015.9
20260504021557 9 0 0.0 0.0 0.00 0.00 0.00 43 1015.8
20260504021057 9 0 0.0 0.0 0.00 0.00 0.00 43 1015.7
20260504020557 9 0 0.0 0.0 0.00 0.00 0.00 42 1015.8
20260504020056 10 0 0.0 0.0 0.00 0.00 0.00 41 1015.8
20260504015556 10 0 0.0 0.0 0.00 0.00 0.00 41 1015.7
20260504015056 10 0 0.0 0.0 0.00 0.00 0.00 40 1015.7
20260504014606 10 0 0.0 0.0 0.00 0.00 0.00 40 1015.6
20260504014055 10 0 0.0 0.0 0.00 0.00 0.00 40 1015.5
20260504013557 10 0 0.0 0.0 0.00 0.00 0.00 39 1015.5
20260504013056 10 0 0.0 0.0 0.00 0.00 0.00 40 1015.4
20260504012556 10 0 0.0 1.6 0.00 0.00 0.00 40 1015.4
20260504012056 10 0 0.0 1.6 0.00 0.00 0.00 39 1015.2
20260504011559 11 0 0.0 0.0 0.00 0.00 0.00 39 1015.3
20260504011055 11 0 0.0 0.0 0.00 0.00 0.00 38 1015.1
20260504010555 11 0 0.0 0.0 0.00 0.00 0.00 38 1015.1
20260504010100 11 0 0.0 0.0 0.00 0.00 0.00 37 1015.1
20260504005555 11 0 0.0 0.0 0.00 0.00 0.00 36 1015.1
20260504005055 11 0 0.0 0.0 0.00 0.00 0.00 36 1015.1
20260504004558 12 0 0.0 0.0 0.00 0.00 0.00 36 1015.0
20260504004056 12 0 0.0 0.0 0.00 0.00 0.00 35 1015.1
20260504003558 12 0 0.0 0.0 0.00 0.00 0.00 35 1015.0
20260504003100 12 0 0.0 0.0 0.00 0.00 0.00 37 1014.9
20260504002556 13 0 0.0 0.0 0.00 0.00 0.00 31 1014.9
20260504002057 13 0 0.0 0.0 0.00 0.00 0.00 30 1014.9
20260504001604 13 0 0.0 0.0 0.00 0.00 0.00 30 1014.9
20260504001057 13 0 0.0 0.0 0.00 0.00 0.00 29 1014.9
20260504000555 13 0 0.0 0.0 0.00 0.00 0.00 30 1014.8
20260504000058 14 0 0.0 0.0 0.00 0.00 0.00 31 1014.7
20260503235555 14 0 0.0 0.0 0.00 0.00 0.00 32 1014.7
20260503235057 15 0 0.0 0.0 0.00 0.00 0.00 30 1014.7
20260503234556 15 0 0.0 0.0 0.00 0.00 0.00 28 1014.7
20260503234056 15 0 0.0 0.0 0.00 0.00 0.00 27 1014.7
20260503233556 15 0 0.0 0.0 0.00 0.00 0.00 27 1014.6
20260503233054 15 0 0.0 0.0 0.00 0.00 0.00 27 1014.6
20260503232555 15 0 0.0 0.0 0.00 0.00 0.00 26 1014.5
20260503232058 16 0 0.0 1.6 0.00 0.00 0.00 28 1014.5
20260503231555 16 0 0.0 3.2 0.00 0.00 0.00 28 1014.5
20260503231056 16 0 0.0 3.2 0.00 0.00 0.00 25 1014.5
20260503230556 16 0 0.0 0.0 0.00 0.00 0.00 24 1014.5
20260503230058 16 0 0.0 0.0 0.00 0.00 0.00 28 1014.4
20260503225556 16 0 0.0 3.2 0.00 0.00 0.00 29 1014.4
20260503225056 16 0 0.0 3.2 0.00 0.00 0.00 29 1014.5
20260503224554 16 0 0.0 3.2 0.00 0.00 0.00 26 1014.5
20260503224056 16 0 0.0 3.2 0.00 0.00 0.00 25 1014.5
20260503223555 17 0 0.0 3.2 0.00 0.00 0.00 24 1014.5
20260503223057 17 306 1.6 3.2 0.00 0.00 0.00 24 1014.4
20260503222555 17 298 0.0 3.2 0.00 0.00 0.00 26 1014.4
20260503222056 17 0 0.0 3.2 0.00 0.00 0.00 20 1014.5
20260503221558 17 0 0.0 6.4 0.00 0.00 0.00 22 1014.6
20260503221055 17 0 0.0 6.4 0.00 0.00 0.00 17 1014.6
20260503220556 17 0 1.6 6.4 0.00 0.00 0.00 18 1014.6
20260503220059 17 0 0.0 6.4 0.00 0.00 0.00 19 1014.6
20260503215555 17 221 0.0 9.7 0.00 0.00 0.00 22 1014.5
20260503215055 17 345 3.2 16.1 0.00 0.00 0.00 17 1014.5
20260503214555 17 351 1.6 16.1 0.00 0.00 0.00 18 1014.7
20260503214055 17 55 4.8 9.7 0.00 0.00 0.00 17 1014.6
20260503213555 17 319 1.6 8.0 0.00 0.00 0.00 19 1014.7
20260503213107 17 327 0.0 12.9 0.00 0.00 0.00 20 1014.7
20260503212558 17 22 3.2 12.9 0.00 0.00 0.00 18 1014.7
20260503212055 17 0 1.6 9.7 0.00 0.00 0.00 18 1014.9
20260503211554 17 326 0.0 9.7 0.00 0.00 0.00 19 1014.7
20260503211056 17 0 1.6 11.3 0.00 0.00 0.00 23 1014.7
20260503210556 17 37 4.8 16.1 0.00 0.00 0.00 18 1014.8
20260503205556 17 0 1.6 6.4 0.00 0.00 0.00 19 1014.8
20260503205058 16 221 1.6 16.1 0.00 0.00 0.00 20 1014.9
20260503204555 16 15 0.0 16.1 0.00 0.00 0.00 19 1014.8
20260503204058 16 23 1.6 11.3 0.00 0.00 0.00 19 1015.0
20260503203555 16 51 1.6 9.7 0.00 0.00 0.00 17 1014.9
20260503203103 17 15 3.2 9.7 0.00 0.00 0.00 18 1015.0
20260503202558 16 319 1.6 8.0 0.00 0.00 0.00 21 1015.0
20260503202058 16 254 0.0 6.4 0.00 0.00 0.00 25 1015.0
20260503201555 16 294 0.0 8.0 0.00 0.00 0.00 25 1015.1
20260503201055 16 277 1.6 9.7 0.00 0.00 0.00 21 1015.2
20260503200559 16 286 1.6 9.7 0.00 0.00 0.00 24 1015.4
20260503200058 16 323 1.6 12.9 0.00 0.00 0.00 20 1015.4
20260503195555 16 193 0.0 12.9 0.00 0.00 0.00 23 1015.6
20260503195055 17 5 1.6 11.3 0.00 0.00 0.00 21 1015.6
20260503194555 17 319 0.0 14.5 0.00 0.00 0.00 25 1015.7
20260503194131 17 0 0.0 14.5 0.00 0.00 0.00 22 1015.7
20260503193555 17 351 6.4 14.5 0.00 0.00 0.00 19 1015.8
20260503193111 16 180 1.6 6.4 0.00 0.00 0.00 25 1015.8
20260503192554 16 173 1.6 8.0 0.00 0.00 0.00 23 1015.8
20260503192055 16 55 1.6 8.0 0.00 0.00 0.00 19 1015.9
20260503191608 16 313 3.2 8.0 0.00 0.00 0.00 22 1016.1
20260503191056 16 205 1.6 11.3 0.00 0.00 0.00 22 1016.1
20260503190555 16 0 3.2 11.3 0.00 0.00 0.00 23 1016.0
20260503190100 16 120 0.0 17.7 0.00 0.00 0.00 26 1016.1
20260503185555 16 157 4.8 17.7 0.00 0.00 0.00 21 1016.3
20260503185058 16 54 4.8 17.7 0.00 0.00 0.00 21 1016.4
20260503184611 16 0 1.6 9.7 0.00 0.00 0.00 23 1016.4
20260503184055 15 255 0.0 14.5 0.00 0.00 0.00 21 1016.4
20260503183555 15 271 4.8 14.5 0.00 0.00 0.00 20 1016.5
20260503183109 15 10 3.2 14.5 0.00 0.00 0.00 21 1016.6
20260503182558 15 31 3.2 19.3 0.00 0.00 0.00 21 1016.7
20260503182057 15 307 1.6 19.3 0.00 0.00 0.00 21 1016.8
20260503181614 15 15 8.0 19.3 0.00 0.00 0.00 20 1016.7
20260503181055 15 329 3.2 16.1 0.00 0.00 0.00 21 1016.8
20260503180555 15 17 4.8 14.5 0.00 0.00 0.00 21 1016.9
20260503180057 15 16 4.8 22.5 0.00 0.00 0.00 22 1016.9
20260503175555 15 278 6.4 22.5 0.00 0.00 0.00 20 1016.8